Previsão horária em Aliaga

Hoje, 30 Novembro, Segunda-feira

Tempo Temperatura Precipitação Vento Pressão Humidade
00:00 +3°C° 0 mm 0 m/s 657 mmHg 88%
01:00 +3°C° 0 mm 0 m/s 657 mmHg 88%
02:00 +3°C° 0 mm 0 m/s 657 mmHg 87%
03:00 +3°C° 0 mm 0 m/s 657 mmHg 87%
04:00 +3°C° 0 mm 0 m/s 657 mmHg 87%
05:00 +2°C° 0 mm 0 m/s 657 mmHg 87%
06:00 +2°C° 0 mm 0 m/s 657 mmHg 87%
07:00 +4°C° 0 mm 0 m/s 658 mmHg 82%
08:00 +6°C° 0 mm 0 m/s 659 mmHg 76%
09:00 +8°C° 0 mm 0 m/s 660 mmHg 70%
10:00 +9°C° 0 mm 0 m/s 660 mmHg 65%
11:00 +10°C° 0 mm 0 m/s 661 mmHg 59%
12:00 +11°C° 0 mm 0 m/s 661 mmHg 54%
13:00 +12°C° 0 mm 1 m/s 660 mmHg 55%
14:00 +12°C° 0 mm 1 m/s 660 mmHg 56%
15:00 +12°C° 0 mm 1 m/s 660 mmHg 57%
16:00 +10°C° 0 mm 1 m/s 659 mmHg 65%
17:00 +7°C° 0 mm 0 m/s 659 mmHg 74%
18:00 +5°C° 0 mm 0 m/s 659 mmHg 82%
19:00 +5°C° 0 mm 0 m/s 659 mmHg 83%
20:00 +5°C° 0 mm 0 m/s 659 mmHg 84%
21:00 +4°C° 0 mm 0 m/s 659 mmHg 84%
22:00 +4°C° 0 mm 0 m/s 659 mmHg 84%
23:00 +3°C° 0 mm 0 m/s 659 mmHg 84%

Amanhã, 1 Dezembro, Terça-feira

Tempo Temperatura Precipitação Vento Pressão Humidade
00:00 +3°C° 0 mm 0 m/s 659 mmHg 84%
01:00 +3°C° 0 mm 0 m/s 658 mmHg 84%
02:00 +3°C° 0 mm 1 m/s 658 mmHg 84%
03:00 +3°C° 0 mm 1 m/s 657 mmHg 84%
04:00 +3°C° 0 mm 1 m/s 657 mmHg 82%
05:00 +3°C° 0 mm 1 m/s 657 mmHg 80%
06:00 +3°C° 0 mm 1 m/s 657 mmHg 79%
07:00 +4°C° 0 mm 1 m/s 657 mmHg 72%
08:00 +6°C° 0 mm 1 m/s 658 mmHg 64%
09:00 +6°C° 0 mm 2 m/s 658 mmHg 57%
10:00 +7°C° 0 mm 3 m/s 658 mmHg 49%
11:00 +7°C° 0 mm 4 m/s 658 mmHg 41%
12:00 +8°C° 0 mm 5 m/s 658 mmHg 33%
13:00 +7°C° 0 mm 6 m/s 657 mmHg 41%
14:00 +5°C° 0 mm 7 m/s 657 mmHg 48%
15:00 +5°C° 0 mm 8 m/s 656 mmHg 56%
16:00 +4°C° 0 mm 7 m/s 656 mmHg 61%
17:00 +3°C° 0 mm 6 m/s 655 mmHg 66%
18:00 +2°C° 0 mm 6 m/s 655 mmHg 71%
19:00 +1°C° 0 mm 6 m/s 655 mmHg 73%
20:00 +1°C° 0 mm 6 m/s 654 mmHg 75%
21:00 +1°C° 0 mm 6 m/s 654 mmHg 77%
22:00 +1°C° 0 mm 6 m/s 654 mmHg 80%
23:00 +1°C° 0 mm 6 m/s 654 mmHg 84%

Depois de amanhã, 2 Dezembro, Quarta-feira

Tempo Temperatura Precipitação Vento Pressão Humidade
00:00 +1°C° 0 mm 6 m/s 654 mmHg 87%
01:00 0°C° 0 mm 7 m/s 653 mmHg 87%
02:00 0°C° 0 mm 8 m/s 653 mmHg 87%
03:00 0°C° 0 mm 9 m/s 653 mmHg 86%
04:00 -1°C° 0 mm 8 m/s 653 mmHg 84%
05:00 -2°C° 0 mm 7 m/s 652 mmHg 82%
06:00 -3°C° 0 mm 7 m/s 652 mmHg 79%
07:00 -4°C° 0 mm 8 m/s 652 mmHg 77%
08:00 -4°C° 0 mm 9 m/s 652 mmHg 75%
09:00 -4°C° 0 mm 11 m/s 652 mmHg 73%
10:00 -4°C° 0 mm 11 m/s 652 mmHg 72%
11:00 -3°C° 0 mm 12 m/s 652 mmHg 70%
12:00 -2°C° 0 mm 12 m/s 652 mmHg 69%
13:00 -2°C° 0 mm 12 m/s 652 mmHg 69%
14:00 -2°C° 0 mm 12 m/s 652 mmHg 69%
15:00 -2°C° 0 mm 11 m/s 652 mmHg 69%
16:00 -3°C° 0 mm 10 m/s 652 mmHg 75%
17:00 -4°C° 0 mm 9 m/s 652 mmHg 80%
18:00 -5°C° 0 mm 8 m/s 652 mmHg 86%
19:00 -4°C° 0 mm 7 m/s 652 mmHg 87%
20:00 -4°C° 0 mm 6 m/s 653 mmHg 89%
21:00 -4°C° 0 mm 6 m/s 653 mmHg 91%
22:00 -4°C° 0 mm 5 m/s 653 mmHg 90%
23:00 -3°C° 0 mm 4 m/s 653 mmHg 88%

3 Dezembro, Quinta-feira

Tempo Temperatura Precipitação Vento Pressão Humidade
00:00 -3°C° 0 mm 4 m/s 653 mmHg 87%
01:00 -3°C° 0 mm 4 m/s 653 mmHg 86%
02:00 -3°C° 0 mm 4 m/s 653 mmHg 86%
03:00 -3°C° 0 mm 4 m/s 652 mmHg 86%
04:00 -3°C° 0 mm 4 m/s 652 mmHg 86%
05:00 -3°C° 0 mm 4 m/s 652 mmHg 85%
06:00 -3°C° 0 mm 4 m/s 651 mmHg 85%
07:00 -3°C° 0 mm 4 m/s 651 mmHg 79%
08:00 -2°C° 0 mm 4 m/s 651 mmHg 72%
09:00 -1°C° 0 mm 4 m/s 651 mmHg 65%
10:00 0°C° 0 mm 4 m/s 651 mmHg 63%
11:00 +1°C° 0 mm 4 m/s 651 mmHg 60%
12:00 +3°C° 0 mm 5 m/s 651 mmHg 58%
13:00 +3°C° 0 mm 5 m/s 650 mmHg 57%
14:00 +3°C° 0 mm 5 m/s 650 mmHg 56%
15:00 +3°C° 0 mm 5 m/s 649 mmHg 55%
16:00 +3°C° 0 mm 4 m/s 649 mmHg 61%
17:00 +1°C° 0 mm 4 m/s 648 mmHg 68%
18:00 0°C° 0 mm 3 m/s 647 mmHg 74%
19:00 -1°C° 0 mm 4 m/s 647 mmHg 72%
20:00 -1°C° 0 mm 5 m/s 647 mmHg 69%
21:00 -2°C° 0 mm 5 m/s 646 mmHg 66%
22:00 -3°C° 0 mm 6 m/s 646 mmHg 69%
23:00 -4°C° 0 mm 8 m/s 645 mmHg 71%

4 Dezembro, Sexta-feira

Tempo Temperatura Precipitação Vento Pressão Humidade
00:00 -3°C° 0 mm 9 m/s 645 mmHg 74%
01:00 -3°C° 0 mm 9 m/s 645 mmHg 75%
02:00 -3°C° 0 mm 10 m/s 644 mmHg 76%
03:00 -3°C° 0 mm 11 m/s 643 mmHg 77%
04:00 -3°C° 0 mm 10 m/s 643 mmHg 78%
05:00 -4°C° 0 mm 10 m/s 642 mmHg 80%
06:00 -4°C° 0 mm 10 m/s 642 mmHg 81%
07:00 -3°C° 0.1 mm 11 m/s 642 mmHg 81%
08:00 -3°C° 0.1 mm 12 m/s 641 mmHg 81%
09:00 -2°C° 0.1 mm 13 m/s 641 mmHg 81%
10:00 -2°C° 0.9 mm 13 m/s 641 mmHg 82%
11:00 -2°C° 0.9 mm 12 m/s 641 mmHg 82%
12:00 -3°C° 0.9 mm 11 m/s 641 mmHg 83%
13:00 -3°C° 0.3 mm 11 m/s 641 mmHg 77%
14:00 -3°C° 0.3 mm 10 m/s 641 mmHg 71%
15:00 -3°C° 0.3 mm 10 m/s 640 mmHg 65%
16:00 -4°C° 0.1 mm 9 m/s 641 mmHg 69%
17:00 -5°C° 0.1 mm 8 m/s 641 mmHg 72%
18:00 -5°C° 0.1 mm 6 m/s 641 mmHg 75%
19:00 -6°C° 0 mm 7 m/s 641 mmHg 75%
20:00 -7°C° 0 mm 8 m/s 641 mmHg 75%
21:00 -8°C° 0 mm 9 m/s 641 mmHg 75%
22:00 -8°C° 0 mm 9 m/s 642 mmHg 77%
23:00 -8°C° 0 mm 9 m/s 642 mmHg 79%

5 Dezembro, Sábado

Tempo Temperatura Precipitação Vento Pressão Humidade
00:00 -9°C° 0 mm 9 m/s 642 mmHg 81%
01:00 -9°C° 0 mm 9 m/s 642 mmHg 81%
02:00 -9°C° 0 mm 9 m/s 642 mmHg 81%
03:00 -9°C° 0 mm 9 m/s 642 mmHg 81%
04:00 -9°C° 0 mm 9 m/s 642 mmHg 81%
05:00 -9°C° 0 mm 9 m/s 643 mmHg 82%
06:00 -8°C° 0 mm 10 m/s 643 mmHg 82%
07:00 -8°C° 0 mm 10 m/s 644 mmHg 82%
08:00 -7°C° 0 mm 11 m/s 644 mmHg 82%
09:00 -7°C° 0 mm 11 m/s 645 mmHg 81%
10:00 -6°C° 0 mm 11 m/s 645 mmHg 77%
11:00 -4°C° 0 mm 11 m/s 645 mmHg 73%
12:00 -3°C° 0 mm 11 m/s 645 mmHg 69%
13:00 -3°C° 0 mm 11 m/s 645 mmHg 67%
14:00 -3°C° 0 mm 12 m/s 645 mmHg 65%
15:00 -3°C° 0 mm 12 m/s 645 mmHg 63%
16:00 -4°C° 0 mm 11 m/s 646 mmHg 70%
17:00 -4°C° 0 mm 11 m/s 646 mmHg 76%
18:00 -5°C° 0 mm 10 m/s 647 mmHg 82%
19:00 -5°C° 0 mm 10 m/s 647 mmHg 82%
20:00 -6°C° 0 mm 9 m/s 647 mmHg 83%
21:00 -6°C° 0 mm 9 m/s 648 mmHg 84%
22:00 -6°C° 0 mm 9 m/s 648 mmHg 84%
23:00 -6°C° 0 mm 9 m/s 648 mmHg 84%
Mostrar mais